This demonstration page uses our WeatherBlox Daily Observations layout. Learn more.

Left ArrowRight Arrow

Hourly Observations for April 3, 2018

Temp ( °F °C ) Dew Point ( °F °C ) Humidity (%) Winds ( mph kmh ) Pressure ( in mb ) Visibility ( mi km ) Precip ( " mm )
12:53 am 00:53 Cloudy with Rain 45 7.2 42 5.6 90 90 Calm 29.93 1014 4 6 0.04 1.02
1:08 am 01:08 Cloudy with Heavy Rain 45 7.2 43 6.1 93 93 VRB 7 11 29.94 1014 3 4 0.09 2.29
1:15 am 01:15 Cloudy with Rain 44 6.7 43 6.1 96 96 NNW 8 13 29.94 1014 4 6 0.11 2.79
1:30 am 01:30 Cloudy with Nearby Thunderstorms 44 6.7 43 6.1 96 96 E 6 9 29.94 1014 5 8 0.13 3.30
1:51 am 01:51 Cloudy with Heavy Rain 45 7 45 7 100 100 ESE 6 9 29.91 1013 3 5 0.22 5.59
1:53 am 01:53 Cloudy with Heavy Rain 44 6.7 43 6.1 96 96 ESE 5 7 29.89 1012 3 5 0.23 5.84
2:28 am 02:28 Cloudy with Rain 45 7.2 44 6.7 97 97 VRB 3 6 29.88 1012 6 10 0.04 1.02
2:48 am 02:48 Cloudy with Thunderstorms 45 7 45 7 100 100 Calm 29.91 1013 3 5 0.10 2.54
2:53 am 02:53 Cloudy with Thunderstorms 45 7.2 44 6.7 97 97 Calm 29.89 1012 3 5 0.11 2.79
3:03 am 03:03 Cloudy with Nearby Thunderstorms 45 7.2 45 7.2 100 100 Calm 29.91 1013 3 5 0.04 1.02
3:12 am 03:12 Cloudy with Nearby Thunderstorms 45 7.2 45 7.2 100 100 ESE 5 7 29.88 1012 3 4 0.10 2.54
3:27 am 03:27 Cloudy with Strong Thunderstorms 45 7.2 45 7.2 100 100 SSE 3 6 29.88 1012 3 4 0.15 3.81
3:46 am 03:46 Cloudy with Nearby Thunderstorms 45 7.2 45 7.2 100 100 SE 6 9 29.85 1011 3 4 0.25 6.35
3:53 am 03:53 Cloudy with Nearby Thunderstorms 45 7.2 45 7.2 100 100 ESE 5 7 29.82 1010 3 4 0.27 6.86
3:55 am 03:55 Cloudy with Light Rain 46 7.8 46 7.8 100 100 ESE 5 7 29.83 1010 3 5 0.00 0.03
4:11 am 04:11 Cloudy with Light Rain 46 7.8 46 7.8 100 100 ESE 5 7 29.83 1010 7 11 0.00 0.03
4:19 am 04:19 Cloudy with Light Rain 46 7.8 46 7.8 100 100 SE 3 6 29.83 1010 7 11 0.00 0.03
4:28 am 04:28 Cloudy 46 8 N/A N/A ESE 3 6 29.83 1010 8 13 0.01 0.25
4:45 am 04:45 Cloudy 46 8 N/A N/A ESE 5 7 29.80 1009 7 11 0.01 0.25
4:53 am 04:53 Cloudy 46 8 N/A N/A VRB 3 6 29.78 1009 7 11 0.01 0.25
5:24 am 05:24 Cloudy with Light Rain 46 8 N/A N/A NNW 10 17 29.85 1011 6 10 0.00 0.03
5:36 am 05:36 Cloudy with Nearby Thunderstorms 46 8 N/A N/A N 5 7 29.85 1011 7 11 0.01 0.25
5:53 am 05:53 Cloudy with Nearby Thunderstorms 46 8 N/A N/A VRB 3 6 29.83 1010 7 11 0.02 0.51
6:07 am 06:07 Cloudy with Rain 46 8 N/A N/A E 5 7 29.85 1011 5 8 0.02 0.51
6:15 am 06:15 Cloudy with Heavy Rain 46 8 N/A N/A ESE 5 7 29.85 1011 3 5 0.07 1.78
6:44 am 06:44 Cloudy with Nearby Thunderstorms 47 8.3 46 7.8 97 97 Calm 29.85 1011 5 8 0.10 2.54
6:53 am 06:53 Cloudy with Nearby Thunderstorms 47 8.3 46 7.8 97 97 N 8 13 29.84 1011 3 5 0.13 3.30
7:01 am 07:01 Cloudy with Nearby Thunderstorms 48 8.9 47 8.3 96 96 S 6 9 29.85 1011 2 2 0.12 3.05
7:08 am 07:08 Cloudy with Nearby Thunderstorms 48 8.9 47 8.3 96 96 VRB 6 9 29.85 1011 1 1 0.26 6.60
7:10 am 07:10 Cloudy with Strong Thunderstorms 48 8.9 47 8.3 96 96 SSE 6 9 29.85 1011 1 1 0.32 8.13
7:17 am 07:17 Cloudy with Strong Thunderstorms 48 8.9 47 8.3 96 96 SSE 6 9 29.85 1011 1 1 0.43 10.92
7:24 am 07:24 Cloudy with Strong Thunderstorms 48 8.9 47 8.3 96 96 VRB 5 7 29.85 1011 2 2 0.47 11.94
7:34 am 07:34 Cloudy with Nearby Thunderstorms 48 8.9 47 8.3 96 96 SSE 3 6 29.85 1011 2 3 0.53 13.46
7:41 am 07:41 Cloudy with Nearby Thunderstorms 48 8.9 48 8.9 100 100 VRB 5 7 29.85 1011 2 2 0.60 15.24
7:49 am 07:49 Cloudy with Strong Thunderstorms 48 9 48 9 100 100 VRB 5 7 29.83 1010 2 3 0.68 17.27
7:50 am 07:50 Cloudy with Strong Thunderstorms 48 8.9 48 8.9 100 100 VRB 5 7 29.81 1010 2 3 0.68 17.27
7:55 am 07:55 Cloudy with Thunderstorms 49 9.4 48 8.9 97 97 VRB 5 7 29.83 1010 3 5 0.01 0.25
8:10 am 08:10 Cloudy with Strong Thunderstorms 49 9.4 48 8.9 97 97 Calm 29.85 1011 2 3 0.12 3.05
8:20 am 08:20 Cloudy with Strong Thunderstorms 49 9.4 48 8.9 97 97 E 5 7 29.85 1011 2 3 0.28 7.11
8:22 am 08:22 Cloudy with Strong Thunderstorms 49 9.4 48 8.9 97 97 VRB 5 7 29.85 1011 2 2 0.32 8.13
8:31 am 08:31 Cloudy with Thunderstorms 49 9.4 48 8.9 97 97 ESE 5 7 29.83 1010 2 3 0.33 8.38
8:39 am 08:39 Cloudy with Thunderstorms 49 9.4 49 9.4 100 100 VRB 3 6 29.85 1011 4 6 0.35 8.89
8:44 am 08:44 Cloudy with Strong Thunderstorms 49 9.4 49 9.4 100 100 ESE 6 9 29.83 1010 2 3 0.42 10.67
8:48 am 08:48 Cloudy with Strong Thunderstorms 50 10 48 9 94 94 E 5 7 29.83 1010 1 1 0.53 13.46
8:53 am 08:53 Cloudy with Thunderstorms 50 10 49 9.4 96 96 SE 6 9 29.80 1009 1 1 0.54 13.72
8:58 am 08:58 Cloudy with Thunderstorms 50 10 49 9.4 96 96 SE 5 7 29.80 1009 2 3 0.00 0.03
9:06 am 09:06 Cloudy with Thunderstorms 51 10.6 50 10 96 96 ESE 3 6 29.83 1010 6 10 0.00 0.03
9:20 am 09:20 Cloudy with Strong Thunderstorms 50 10 50 10 100 100 SE 5 7 29.80 1009 2 3 0.06 1.52
9:27 am 09:27 Cloudy with Thunderstorms 51 10.6 50 10 96 96 VRB 5 7 29.80 1009 2 2 0.06 1.52
9:29 am 09:29 Cloudy with Thunderstorms 51 10.6 50 10 96 96 NE 6 9 29.80 1009 2 3 0.06 1.52
9:36 am 09:36 Cloudy with Nearby Thunderstorms 51 10.6 50 10 96 96 E 6 9 29.80 1009 7 11 0.06 1.52
9:53 am 09:53 Cloudy with Light Rain 52 11.1 51 10.6 97 97 E 5 7 29.77 1008 9 14 0.06 1.52
10:08 am 10:08 Cloudy with Nearby Thunderstorms 53 11.7 51 10.6 93 93 ESE 5 7 29.77 1008 9 14 0.01 0.25
10:21 am 10:21 Cloudy with Nearby Thunderstorms 53 11.7 51 10.6 93 93 E 5 7 29.77 1008 10 16 0.01 0.25
10:35 am 10:35 Cloudy 53 11.7 51 10.6 93 93 ESE 3 6 29.77 1008 8 13 0.01 0.25
10:53 am 10:53 Cloudy 54 12.2 52 11.1 93 93 ESE 5 7 29.76 1008 9 14 0.01 0.25
11:53 am 11:53 Cloudy 60 15.6 54 12.2 80 80 VRB 3 6 29.75 1008 10 16 0.00 0.00
12:34 pm 12:34 Cloudy 62 16.7 56 13.3 80 80 VRB 6 9 29.71 1006 10 16 0.00 0.00
12:53 pm 12:53 Cloudy 63 17.2 56 13.3 78 78 ESE 5 7 29.70 1006 10 16 0.00 0.00
1:53 pm 13:53 Mostly Cloudy 71 21.7 59 15 66 66 VRB 5 7 29.65 1004 10 16 0.00 0.00
2:53 pm 14:53 Cloudy 75 23.9 58 14.4 55 55 SW 12 19 29.61 1003 10 16 0.00 0.00
3:53 pm 15:53 Mostly Cloudy 75 23.9 56 13.3 52 52 SW 16 26 29.58 1002 10 16 0.00 0.00
4:27 pm 16:27 Mostly Cloudy with Nearby Thunderstorms 73 22.8 57 13.9 57 57 W 13 20 29.56 1001 10 16 0.00 0.03
4:40 pm 16:40 Cloudy with Thunderstorms 63 17.2 57 13.9 81 81 W 18 30 29.62 1003 5 8 0.03 0.76
4:53 pm 16:53 Cloudy with Thunderstorms 63 17.2 58 14.4 84 84 VRB 6 9 29.61 1003 3 5 0.08 2.03
5:29 pm 17:29 Cloudy with Nearby Thunderstorms 68 20 56 13.3 65 65 WSW 21 33 29.59 1002 10 16 0.02 0.51
5:44 pm 17:44 Cloudy 66 18.9 57 13.9 73 73 SW 7 11 29.59 1002 10 16 0.02 0.51
5:53 pm 17:53 Cloudy with Nearby Thunderstorms 66 18.9 58 14.4 75 75 SW 12 19 29.59 1002 10 16 0.02 0.51
6:34 pm 18:34 Cloudy with Light Rain 64 17.8 60 15.6 87 87 SSW 7 11 29.59 1002 7 11 0.03 0.76
6:53 pm 18:53 Cloudy 65 18.3 60 15.6 84 84 S 6 9 29.57 1001 10 16 0.03 0.76
7:13 pm 19:13 Cloudy with Thunderstorms 64 17.8 60 15.6 87 87 S 9 15 29.56 1001 7 11 0.01 0.25
7:53 pm 19:53 Cloudy with Thunderstorms 63 17.2 60 15.6 90 90 S 8 13 29.56 1001 3 4 0.09 2.29
8:09 pm 20:09 Cloudy with Light Rain 63 17.2 59 15 87 87 SSW 6 9 29.56 1001 10 16 0.00 0.03
8:53 pm 20:53 Partly Cloudy 62 16.7 59 15 90 90 VRB 3 6 29.53 1000 10 16 0.00 0.03
9:53 pm 21:53 Mostly Cloudy 65 18.3 59 15 81 81 S 12 19 29.53 1000 10 16 0.00 0.03
10:53 pm 22:53 Cloudy 66 18.9 59 15 78 78 SW 17 28 29.54 1000 10 16 0.00 0.00
11:53 pm 23:53 Cloudy with Light Rain 60 15.6 54 12.2 80 80 WNW 25 41 29.56 1001 10 16 0.01 0.25

Powered by AerisWeather